[[{"header":{"parameterUnit":"m.s-1","parameterCategory":1,"la1":30.2991,"la2":30.254,"lo1":-89.0895,"lo2":-89.0444,"dy":0.0017,"dx":0.0017,"nx":28,"ny":28,"refTime":"2024-03-09T09:00:00:Z","depth":0,"parameterNumber":2,"parameterNumberName":"U-component_of_WINDS"},"data":[0,0,0,0,0,0,0,0,0,0,0,0,0,0,0,0,0,0,0,0,0,0,0,0,0,0,0,0,0,0,0,0,0,0,0,0,0,0,0,0,0,0,0,0,0,0,0,0,0,0,0,0,0,0,0,0,0,0,0.7325,0.7325,0,0.7341,0.7341,0.7341,0.7345,0.7345,0.7345,0.7345,0.7361,0.7362,0.7362,0,0,0,0,0,0,0,0,0,0,0,0,0,0.7298,0.7299,0.7325,0.7325,0.7325,0.7341,0.7341,0.7342,0.7345,0.7345,0.7345,0.7345,0.7361,0.7362,0.7362,0,0,0,0,0,0,0,0,0,0,0,0,0,0.7312,0.7299,0.7325,0.7329,0.733,0.7341,0.7341,0.7342,0.7345,0.7345,0.7345,0.7345,0.7361,0.7362,0.7363,0.7371,0,0,0.7365,0.7365,0,0,0,0,0,0,0,0,0.7311,0.7313,0.7328,0.7329,0.7329,0.7341,0.7338,0.7351,0.7345,0.7339,0.7345,0.7345,0.7355,0.7356,0.7359,0.7372,0.7372,0.7365,0.7366,0.7366,0.7366,0,0,0,0,0,0,0,0.731,0.7312,0.7331,0.7329,0.7329,0.7331,0.7332,0.7341,0.7348,0.734,0.734,0.7342,0.7355,0.7359,0.736,0.7373,0.7365,0.7366,0.7366,0.7367,0.7394,0.7394,0,0,0,0,0,0,0.7308,0.7311,0.7331,0.7332,0.732,0.7331,0.7333,0.7337,0.7348,0.7349,0.7342,0.7342,0.7357,0.7359,0.736,0.7371,0.7366,0.7367,0.7367,0.7394,0.7394,0.7394,0,0,0,0,0,0,0.7308,0.731,0.733,0.7322,0.7324,0.7332,0.7337,0.7338,0.7341,0.7349,0.7351,0.7344,0.7357,0.7359,0.7369,0.7372,0.7367,0.7368,0.7393,0.7394,0.7394,0.7393,0,0,0,0,0,0,0.7307,0.731,0.7313,0.7322,0.7325,0.7338,0.7337,0.7338,0.7343,0.7343,0.7352,0.7353,0.7357,0.7367,0.7369,0.7373,0.7369,0.7393,0.7393,0.7394,0.7393,0.7393,0.7394,0,0,0,0,0,0.7306,0.7312,0.7313,0.7315,0.7329,0.7338,0.734,0.7344,0.7343,0.7346,0.7352,0.7353,0.7371,0.7368,0.7371,0.7375,0.7393,0.7393,0.7394,0.7393,0.7393,0.7394,0,0,0,0,0,0,0.7303,0.7313,0.7314,0.7323,0.733,0.7338,0.7343,0.7345,0.7352,0.7351,0.7357,0.7359,0.7368,0.7372,0.7368,0.7384,0.7382,0.7383,0.738,0.7381,0.7382,0.738,0.7369,0,0,0,0,0,0.7303,0.731,0.7318,0.7325,0.7328,0.7335,0.7339,0.7342,0.7349,0.7352,0.7358,0.7365,0.7372,0.7377,0.7384,0.7394,0.7396,0.7398,0.7398,0.7399,0.7399,0.7405,0.7406,0.7396,0.7396,0.7396,0,0,0.7304,0.731,0.7314,0.7325,0.733,0.7337,0.7337,0.7344,0.735,0.7353,0.7362,0.7367,0.7375,0.7385,0.7389,0.7389,0.7403,0.7399,0.74,0.74,0.7406,0.7407,0.7408,0.7396,0.7396,0.7396,0,0,0.7308,0.7314,0.732,0.7326,0.7334,0.7339,0.7341,0.735,0.7353,0.7362,0.7365,0.7372,0.7384,0.739,0.7395,0.7403,0.7405,0.7405,0.7408,0.7414,0.7415,0.7415,0.7419,0.742,0.7406,0.7406,0.7406,0,0.7308,0.7318,0.7323,0.7331,0.7336,0.734,0.7347,0.7352,0.7362,0.7366,0.7365,0.7381,0.7387,0.7398,0.7401,0.7404,0.7407,0.7404,0.7414,0.7415,0.7416,0.7419,0.742,0.7406,0.7406,0.7406,0.7406,0,0.7318,0.7325,0.7329,0.734,0.7345,0.7352,0.7359,0.7364,0.7367,0.7372,0.7382,0.7389,0.7398,0.7401,0.7404,0.7413,0.7412,0.7413,0.7411,0.7417,0.742,0.7421,0.7406,0.7406,0.7406,0.7406,0,0,0.732,0.7334,0.7335,0.734,0.735,0.7356,0.7364,0.7373,0.7377,0.7385,0.7391,0.7403,0.7403,0.7409,0.7412,0.7417,0.7424,0.7417,0.7418,0.7418,0.7435,0.7435,0.7436,0.7426,0.7426,0.7426,0.7435,0,0.7326,0.7339,0.7345,0.7356,0.7363,0.7367,0.7374,0.7381,0.7386,0.7394,0.7399,0.7407,0.7407,0.7411,0.7416,0.7422,0.7428,0.7422,0.7432,0.7432,0.743,0.7438,0.7437,0.7445,0.7436,0.7436,0.7436,0,0.7334,0.7342,0.7354,0.7364,0.7367,0.7373,0.7382,0.7389,0.7398,0.7401,0.7407,0.7411,0.742,0.7418,0.7431,0.7427,0.7432,0.7435,0.7436,0.7437,0.7434,0.7439,0.7447,0.7448,0.7438,0.7438,0.7438,0,0.7335,0.7348,0.7357,0.7361,0.7373,0.7377,0.7383,0.7391,0.7396,0.7405,0.7408,0.7418,0.7423,0.743,0.7436,0.7434,0.7448,0.7447,0.7452,0.7451,0.7454,0.7454,0.7463,0.7457,0.7457,0.7457,0.7457,0,0.7341,0.7348,0.7358,0.7363,0.7372,0.7378,0.7386,0.7392,0.74,0.7407,0.7411,0.7418,0.7426,0.7434,0.7439,0.7449,0.7451,0.7454,0.7455,0.7453,0.7453,0.7456,0.7456,0.7458,0.7458,0.7458,0.7457,0,0.7342,0.7349,0.7359,0.737,0.7373,0.7379,0.7388,0.7394,0.74,0.7409,0.7411,0.742,0.743,0.7437,0.7449,0.7452,0.7463,0.7464,0.746,0.7461,0.7465,0.7464,0.7477,0.7479,0.7472,0.7472,0.7472,0,0.7345,0.7351,0.7363,0.7368,0.7373,0.7381,0.7387,0.7394,0.74,0.741,0.7415,0.7425,0.7433,0.7448,0.7456,0.7466,0.7467,0.7471,0.7469,0.7467,0.7468,0.7467,0.7468,0.7471,0.7471,0.7471,0.7471,0,0.735,0.7354,0.7362,0.7371,0.7378,0.7386,0.7393,0.7397,0.7406,0.7413,0.7422,0.7429,0.7442,0.7452,0.7462,0.7468,0.7471,0.7472,0.7474,0.7472,0.7469,0.7471,0.7461,0.7472,0.7472,0.7472,0.7472,0.7472,0.7353,0.7358,0.7368,0.7376,0.7383,0.7391,0.7397,0.7404,0.7412,0.7423,0.7427,0.7437,0.7447,0.7461,0.7468,0.7476,0.7476,0.7478,0.7479,0.7479,0.7479,0.7468,0.7478,0.7478,0.7478,0.7478,0.7478,0,0.7358,0.7365,0.7373,0.7384,0.7391,0.7394,0.7403,0.7409,0.7418,0.7426,0.7435,0.7446,0.7456,0.7465,0.7476,0.7481,0.7483,0.7484,0.7483,0.7484,0.7478,0.7476,0.7482,0.7482,0.7482,0.7482,0.7482,0.7482,0.7362,0.7371,0.7376,0.7389,0.7396,0.7406,0.7411,0.7418,0.7425,0.7438,0.7446,0.7452,0.7461,0.7472,0.7482,0.7484,0.7488,0.7488,0.7491,0.7485,0.7485,0.7484,0.7482,0.7489,0.7489,0.7497,0.7497,0.7497]},{"header":{"parameterUnit":"m.s-1","parameterCategory":1,"la1":30.2991,"la2":30.254,"lo1":-89.0895,"lo2":-89.0444,"dy":0.0017,"dx":0.0017,"nx":28,"ny":28,"refTime":"2024-03-09T09:00:00:Z","depth":0,"parameterNumber":3,"parameterNumberName":"V-component_of_WINDS"},"data":[0,0,0,0,0,0,0,0,0,0,0,0,0,0,0,0,0,0,0,0,0,0,0,0,0,0,0,0,0,0,0,0,0,0,0,0,0,0,0,0,0,0,0,0,0,0,0,0,0,0,0,0,0,0,0,0,0,0,-4.5593,-4.5595,0,-4.5719,-4.572,-4.5721,-4.5686,-4.5684,-4.5681,-4.5679,-4.5805,-4.581,-4.5816,0,0,0,0,0,0,0,0,0,0,0,0,0,-4.5322,-4.5327,-4.5593,-4.5595,-4.5596,-4.5718,-4.572,-4.5722,-4.5687,-4.5684,-4.5681,-4.5678,-4.5803,-4.581,-4.5816,0,0,0,0,0,0,0,0,0,0,0,0,0,-4.5443,-4.5329,-4.5593,-4.5594,-4.5595,-4.5718,-4.572,-4.5722,-4.5687,-4.5684,-4.568,-4.5676,-4.5801,-4.5809,-4.5817,-4.5946,0,0,-4.5844,-4.5847,0,0,0,0,0,0,0,0,-4.5436,-4.5453,-4.5592,-4.5594,-4.5596,-4.5683,-4.567,-4.5797,-4.5688,-4.5652,-4.5679,-4.5674,-4.5767,-4.5778,-4.581,-4.5952,-4.5958,-4.5844,-4.585,-4.5853,-4.5856,0,0,0,0,0,0,0,-4.5428,-4.5447,-4.5643,-4.5594,-4.5596,-4.5587,-4.56,-4.5694,-4.5729,-4.5655,-4.5653,-4.5668,-4.5767,-4.5802,-4.5813,-4.596,-4.5844,-4.5852,-4.5857,-4.586,-4.6215,-4.6219,0,0,0,0,0,0,-4.5418,-4.544,-4.5639,-4.5646,-4.5505,-4.5595,-4.561,-4.5659,-4.5728,-4.5735,-4.5671,-4.5666,-4.5789,-4.5803,-4.5817,-4.5973,-4.5853,-4.5861,-4.5866,-4.621,-4.6215,-4.622,0,0,0,0,0,0,-4.5413,-4.5436,-4.5634,-4.5543,-4.5567,-4.5604,-4.5659,-4.5663,-4.5698,-4.5741,-4.5746,-4.57,-4.5787,-4.5805,-4.5915,-4.5977,-4.5865,-4.5873,-4.6205,-4.6212,-4.6218,-4.6286,0,0,0,0,0,0,-4.5405,-4.5434,-4.5484,-4.5544,-4.5572,-4.573,-4.5663,-4.5668,-4.5713,-4.5707,-4.5769,-4.5776,-4.5785,-4.5902,-4.5923,-4.5987,-4.588,-4.62,-4.6208,-4.6216,-4.6278,-4.6294,-4.6307,0,0,0,0,0,-4.5395,-4.5498,-4.5487,-4.5511,-4.5636,-4.5734,-4.575,-4.5759,-4.5718,-4.5768,-4.5796,-4.5774,-4.5967,-4.5914,-4.5937,-4.6004,-4.6196,-4.6206,-4.6215,-4.6272,-4.6291,-4.6307,0,0,0,0,0,0,-4.5443,-4.5506,-4.5494,-4.562,-4.5672,-4.5728,-4.5791,-4.5779,-4.5843,-4.5835,-4.5842,-4.5857,-4.5969,-4.5998,-4.5937,-4.6133,-4.6075,-4.609,-4.611,-4.6129,-4.6143,-4.6134,-4.5887,0,0,0,0,0,-4.5469,-4.5544,-4.5594,-4.57,-4.5727,-4.5755,-4.5798,-4.58,-4.5854,-4.5876,-4.5912,-4.5964,-4.6037,-4.6084,-4.6153,-4.6282,-4.6295,-4.634,-4.6354,-4.6366,-4.6378,-4.6449,-4.6469,-4.6252,-4.6251,-4.6251,0,0,-4.5521,-4.5565,-4.5612,-4.571,-4.5751,-4.5829,-4.5773,-4.5857,-4.5915,-4.5888,-4.5995,-4.6023,-4.6082,-4.6202,-4.6257,-4.6229,-4.6442,-4.6378,-4.6387,-4.6394,-4.6461,-4.6482,-4.65,-4.6258,-4.6257,-4.6256,0,0,-4.5657,-4.5697,-4.579,-4.5832,-4.5895,-4.5913,-4.5936,-4.5994,-4.6012,-4.6119,-4.6101,-4.6169,-4.6293,-4.6337,-4.6375,-4.6528,-4.651,-4.655,-4.6625,-4.6694,-4.6711,-4.6726,-4.6781,-4.68,-4.6562,-4.6562,-4.6563,0,-4.5714,-4.5831,-4.5839,-4.5925,-4.5969,-4.595,-4.6044,-4.6084,-4.6166,-4.6196,-4.6164,-4.6321,-4.6359,-4.6489,-4.6527,-4.6558,-4.6584,-4.6543,-4.6708,-4.6723,-4.6738,-4.679,-4.681,-4.6567,-4.6566,-4.6566,-4.6565,0,-4.5898,-4.5979,-4.6046,-4.6127,-4.6179,-4.6268,-4.6289,-4.634,-4.6339,-4.636,-4.6469,-4.6515,-4.6593,-4.6624,-4.6623,-4.6754,-4.6735,-4.6706,-4.6648,-4.6763,-4.6812,-4.6832,-4.6573,-4.6572,-4.657,-4.6569,0,0,-4.6067,-4.6152,-4.6176,-4.6213,-4.6281,-4.6344,-4.6432,-4.6509,-4.6553,-4.661,-4.6684,-4.6791,-4.6764,-4.6808,-4.6811,-4.6871,-4.6989,-4.6834,-4.6836,-4.6862,-4.7137,-4.7159,-4.7182,-4.6978,-4.6982,-4.6985,-4.7132,0,-4.6208,-4.6365,-4.6375,-4.6517,-4.6592,-4.6575,-4.6652,-4.6702,-4.6725,-4.6791,-4.6815,-4.6891,-4.685,-4.6876,-4.6935,-4.6963,-4.7045,-4.6952,-4.7047,-4.705,-4.7033,-4.7208,-4.7231,-4.7368,-4.7152,-4.7155,-4.7157,0,-4.6394,-4.6458,-4.6607,-4.6666,-4.6698,-4.6767,-4.6839,-4.6903,-4.6959,-4.6971,-4.702,-4.7015,-4.7105,-4.7045,-4.7169,-4.7106,-4.7145,-4.7164,-4.717,-4.7179,-4.7111,-4.7222,-4.7412,-4.7432,-4.7188,-4.7185,-4.7183,0,-4.6502,-4.6626,-4.6731,-4.6763,-4.6834,-4.6883,-4.6914,-4.6967,-4.7013,-4.7075,-4.7105,-4.7177,-4.7217,-4.7272,-4.7287,-4.7241,-4.7411,-4.7351,-4.7423,-4.7423,-4.7459,-4.7457,-4.7658,-4.7485,-4.7485,-4.7484,-4.7484,0,-4.6659,-4.6751,-4.6781,-4.6846,-4.6948,-4.6959,-4.706,-4.7088,-4.7136,-4.7205,-4.7195,-4.726,-4.7275,-4.7343,-4.7355,-4.7456,-4.7474,-4.7486,-4.7488,-4.7487,-4.7486,-4.7513,-4.7503,-4.749,-4.7488,-4.7487,-4.7486,0,-4.6797,-4.6821,-4.6935,-4.6993,-4.7009,-4.7082,-4.7132,-4.7194,-4.7215,-4.7303,-4.7325,-4.7358,-4.7438,-4.7458,-4.7553,-4.756,-4.768,-4.7673,-4.7661,-4.7661,-4.7732,-4.7725,-4.7958,-4.7989,-4.7795,-4.7797,-4.7798,0,-4.6895,-4.6966,-4.7032,-4.7078,-4.7112,-4.7187,-4.7234,-4.7248,-4.7298,-4.7368,-4.7421,-4.75,-4.7564,-4.7692,-4.7724,-4.7797,-4.7791,-4.7868,-4.7802,-4.7799,-4.7792,-4.7788,-4.7795,-4.788,-4.7882,-4.7884,-4.7885,0,-4.7068,-4.7076,-4.7145,-4.7219,-4.7276,-4.7334,-4.739,-4.7428,-4.745,-4.7506,-4.7588,-4.7638,-4.7735,-4.7813,-4.7887,-4.7918,-4.7906,-4.7906,-4.7926,-4.7926,-4.7916,-4.7922,-4.7695,-4.79,-4.7899,-4.7898,-4.7897,-4.7896,-4.7189,-4.7251,-4.7307,-4.7385,-4.7428,-4.7481,-4.7542,-4.7572,-4.7641,-4.7722,-4.7726,-4.7815,-4.787,-4.7967,-4.8003,-4.8073,-4.8049,-4.8079,-4.8086,-4.8093,-4.8099,-4.7906,-4.8086,-4.8085,-4.8085,-4.8085,-4.8084,0,-4.736,-4.7396,-4.7467,-4.7546,-4.7607,-4.7591,-4.7652,-4.7704,-4.7783,-4.7836,-4.7899,-4.7993,-4.807,-4.8108,-4.8183,-4.8232,-4.8228,-4.8251,-4.8247,-4.8255,-4.8116,-4.8091,-4.8253,-4.8253,-4.8253,-4.8253,-4.8253,-4.8253,-4.7457,-4.7561,-4.7577,-4.7702,-4.7737,-4.7826,-4.7862,-4.791,-4.7952,-4.8059,-4.8122,-4.8147,-4.8194,-4.8273,-4.8342,-4.8351,-4.8379,-4.8406,-4.8412,-4.8282,-4.8264,-4.8248,-4.8224,-4.8412,-4.8412,-4.8545,-4.8546,-4.8547]}]]